NORTHEAST SUFFOLK  -  Winter Weather Advisory Winter Weather Advisory        NORTHERN NASSAU  -  Winter Weather Advisory Winter Weather Advisory        NORTHWEST SUFFOLK  -  Winter Weather Advisory Winter Weather Advisory        SOUTHEAST SUFFOLK  -  Winter Weather Advisory Winter Weather Advisory        SOUTHERN NASSAU  -  Winter Weather Advisory Winter Weather Advisory        SOUTHWEST SUFFOLK  -  Winter Weather Advisory Winter Weather Advisory      

Active alerts

Northern Nassau
  Details for Northern Nassau Winter Weather Advisory
Southern Nassau
  Details for Southern Nassau Winter Weather Advisory
Northwest Suffolk
  Details for Northwest Suffolk Winter Weather Advisory
Southwest Suffolk
  Details for Southwest Suffolk Winter Weather Advisory
Northeast Suffolk
  Details for Northeast Suffolk Winter Weather Advisory
Southeast Suffolk
  Details for Southeast Suffolk Winter Weather Advisory


WXM80 ListenWXM80 Stop

You find our weather info also at:

UK Metoffice

WeatherCloud

Weather Underground

Northeastern Weather Network

AWEKAS

Citizen Weather Observer Program (CWOP)

HAMweather, WeatherForYou, PWS Weather


Weather Underground History page Text

Daily Summary for January 15, 2017 Units:  Both    English   Metric
« Previous Day
Next Day »
Daily Weekly Monthly Yearly Custom
  High: Low: Average:
Temperature: 38.2 °F /  3.4 °C 27.3 °F /  -2.6 °C 32.2 °F /  0.1 °C
Dew Point: 29.2 °F /  -1.6 °C 23.8 °F /  -4.6 °C 26.5 °F /  -3.1 °C
Humidity: 94 % 62 % 80 %
Wind Speed: 6.0 mph /  9.7 km/h - 1.8 mph /  2.9 km/h
Wind Gust: 11.0 mph /  17.7 km/h - -
Wind:- - WNW
Pressure: 30.39 in /  1029 hPa 30.24 in /  1023.9 hPa -
Precipitation: 0.00 in /  0 mm    
Historical Graphs
 
 
Tabular Data for January 15, 2017
Time Temperature Dew Point Pressure Wind Wind Speed Wind Gust Humidity Rainfall Rate (Hourly)
00:00 29.8 °F /  -1.2 °C 28.0 °F /  -2.2 °C 30.28 in /  1025.3 hPa Calm     93 % 0.00 in /  0 mm
00:05 29.8 °F /  -1.2 °C 28.0 °F /  -2.2 °C 30.28 in /  1025.3 hPa Calm     93 % 0.00 in /  0 mm
00:10 29.8 °F /  -1.2 °C 28.0 °F /  -2.2 °C 30.28 in /  1025.3 hPa Calm     93 % 0.00 in /  0 mm
00:15 29.9 °F /  -1.2 °C 28.1 °F /  -2.2 °C 30.27 in /  1024.9 hPa Calm     93 % 0.00 in /  0 mm
00:20 29.9 °F /  -1.2 °C 28.1 °F /  -2.2 °C 30.27 in /  1024.9 hPa Calm   1.2 mph /  1.9 km/h 93 % 0.00 in /  0 mm
00:26 30.0 °F /  -1.1 °C 28.2 °F /  -2.1 °C 30.27 in /  1024.9 hPa Calm     93 % 0.00 in /  0 mm
00:31 30.0 °F /  -1.1 °C 28.2 °F /  -2.1 °C 30.27 in /  1024.9 hPa Calm     93 % 0.00 in /  0 mm
00:36 30.1 °F /  -1.1 °C 28.3 °F /  -2.1 °C 30.27 in /  1024.9 hPa Calm     93 % 0.00 in /  0 mm
00:41 30.1 °F /  -1.1 °C 28.6 °F /  -1.9 °C 30.27 in /  1024.9 hPa SSE 0.4 mph /  0.6 km/h 1.0 mph /  1.6 km/h 94 % 0.00 in /  0 mm
00:46 30.2 °F /  -1 °C 28.7 °F /  -1.8 °C 30.27 in /  1024.9 hPa Calm     94 % 0.00 in /  0 mm
00:51 30.2 °F /  -1 °C 28.7 °F /  -1.8 °C 30.26 in /  1024.6 hPa SSE 0.3 mph /  0.5 km/h 2.3 mph /  3.7 km/h 94 % 0.00 in /  0 mm
00:56 30.2 °F /  -1 °C 28.7 °F /  -1.8 °C 30.26 in /  1024.6 hPa Calm   1.2 mph /  1.9 km/h 94 % 0.00 in /  0 mm
01:01 30.3 °F /  -0.9 °C 28.8 °F /  -1.8 °C 30.26 in /  1024.6 hPa Calm   3.5 mph /  5.6 km/h 94 % 0.00 in /  0 mm
01:06 30.3 °F /  -0.9 °C 28.8 °F /  -1.8 °C 30.26 in /  1024.6 hPa Calm     94 % 0.00 in /  0 mm
01:11 30.3 °F /  -0.9 °C 28.8 °F /  -1.8 °C 30.25 in /  1024.3 hPa WSW 0.3 mph /  0.5 km/h 1.2 mph /  1.9 km/h 94 % 0.00 in /  0 mm
01:16 30.4 °F /  -0.9 °C 28.9 °F /  -1.7 °C 30.25 in /  1024.3 hPa WSW 0.1 mph /  0.2 km/h 1.2 mph /  1.9 km/h 94 % 0.00 in /  0 mm
01:21 30.4 °F /  -0.9 °C 28.6 °F /  -1.9 °C 30.25 in /  1024.3 hPa WSW 0.1 mph /  0.2 km/h 1.2 mph /  1.9 km/h 93 % 0.00 in /  0 mm
01:26 30.5 °F /  -0.8 °C 29.0 °F /  -1.7 °C 30.25 in /  1024.3 hPa WSW 0.1 mph /  0.2 km/h 1.2 mph /  1.9 km/h 94 % 0.00 in /  0 mm
01:31 30.5 °F /  -0.8 °C 29.0 °F /  -1.7 °C 30.25 in /  1024.3 hPa Calm   1.2 mph /  1.9 km/h 94 % 0.00 in /  0 mm
01:36 30.6 °F /  -0.8 °C 29.1 °F /  -1.6 °C 30.25 in /  1024.3 hPa WSW 0.6 mph /  1 km/h 2.3 mph /  3.7 km/h 94 % 0.00 in /  0 mm
01:42 30.6 °F /  -0.8 °C 29.1 °F /  -1.6 °C 30.25 in /  1024.3 hPa Calm     94 % 0.00 in /  0 mm
01:47 30.6 °F /  -0.8 °C 29.1 °F /  -1.6 °C 30.25 in /  1024.3 hPa Calm     94 % 0.00 in /  0 mm
01:52 30.6 °F /  -0.8 °C 29.1 °F /  -1.6 °C 30.25 in /  1024.3 hPa WSW 0.3 mph /  0.5 km/h 1.0 mph /  1.6 km/h 94 % 0.00 in /  0 mm
01:57 30.5 °F /  -0.8 °C 28.7 °F /  -1.8 °C 30.25 in /  1024.3 hPa WSW 0.6 mph /  1 km/h   93 % 0.00 in /  0 mm
02:02 30.5 °F /  -0.8 °C 29.0 °F /  -1.7 °C 30.25 in /  1024.3 hPa WSW 0.4 mph /  0.6 km/h   94 % 0.00 in /  0 mm
02:07 30.4 °F /  -0.9 °C 28.6 °F /  -1.9 °C 30.25 in /  1024.3 hPa Calm     93 % 0.00 in /  0 mm
02:12 30.3 °F /  -0.9 °C 28.5 °F /  -1.9 °C 30.25 in /  1024.3 hPa Calm     93 % 0.00 in /  0 mm
02:17 30.3 °F /  -0.9 °C 28.5 °F /  -1.9 °C 30.25 in /  1024.3 hPa Calm     93 % 0.00 in /  0 mm
02:22 30.2 °F /  -1 °C 28.4 °F /  -2 °C 30.25 in /  1024.3 hPa Calm     93 % 0.00 in /  0 mm
02:27 30.2 °F /  -1 °C 28.4 °F /  -2 °C 30.25 in /  1024.3 hPa Calm     93 % 0.00 in /  0 mm
02:32 30.1 °F /  -1.1 °C 28.3 °F /  -2.1 °C 30.25 in /  1024.3 hPa WSW 1.0 mph /  1.6 km/h 2.3 mph /  3.7 km/h 93 % 0.00 in /  0 mm
02:37 29.9 °F /  -1.2 °C 28.1 °F /  -2.2 °C 30.24 in /  1023.9 hPa WSW 0.2 mph /  0.3 km/h 1.2 mph /  1.9 km/h 93 % 0.00 in /  0 mm
02:42 29.9 °F /  -1.2 °C 28.1 °F /  -2.2 °C 30.25 in /  1024.3 hPa Calm   1.0 mph /  1.6 km/h 93 % 0.00 in /  0 mm
02:47 29.8 °F /  -1.2 °C 28.0 °F /  -2.2 °C 30.25 in /  1024.3 hPa WSW 1.0 mph /  1.6 km/h 2.0 mph /  3.2 km/h 93 % 0.00 in /  0 mm
02:52 29.8 °F /  -1.2 °C 28.0 °F /  -2.2 °C 30.25 in /  1024.3 hPa NNW 2.7 mph /  4.3 km/h 7.0 mph /  11.3 km/h 93 % 0.00 in /  0 mm
02:57 30.0 °F /  -1.1 °C 28.2 °F /  -2.1 °C 30.25 in /  1024.3 hPa NW 3.4 mph /  5.5 km/h 8.1 mph /  13 km/h 93 % 0.00 in /  0 mm
03:03 30.3 °F /  -0.9 °C 28.8 °F /  -1.8 °C 30.24 in /  1023.9 hPa WNW 2.9 mph /  4.7 km/h 10.4 mph /  16.7 km/h 94 % 0.00 in /  0 mm
03:08 30.4 °F /  -0.9 °C 28.9 °F /  -1.7 °C 30.24 in /  1023.9 hPa West 3.5 mph /  5.6 km/h 6.9 mph /  11.1 km/h 94 % 0.00 in /  0 mm
03:13 30.7 °F /  -0.7 °C 28.9 °F /  -1.7 °C 30.24 in /  1023.9 hPa NW 4.2 mph /  6.8 km/h 5.8 mph /  9.3 km/h 93 % 0.00 in /  0 mm
03:18 30.9 °F /  -0.6 °C 29.1 °F /  -1.6 °C 30.24 in /  1023.9 hPa West 1.5 mph /  2.4 km/h 4.0 mph /  6.4 km/h 93 % 0.00 in /  0 mm
03:23 31.0 °F /  -0.6 °C 29.2 °F /  -1.6 °C 30.24 in /  1023.9 hPa WNW 0.7 mph /  1.1 km/h 3.5 mph /  5.6 km/h 93 % 0.00 in /  0 mm
03:28 31.1 °F /  -0.5 °C 29.0 °F /  -1.7 °C 30.24 in /  1023.9 hPa NW 4.0 mph /  6.4 km/h 6.9 mph /  11.1 km/h 92 % 0.00 in /  0 mm
03:33 31.1 °F /  -0.5 °C 29.0 °F /  -1.7 °C 30.24 in /  1023.9 hPa NNW 3.7 mph /  6 km/h 6.0 mph /  9.7 km/h 92 % 0.00 in /  0 mm
03:38 31.2 °F /  -0.4 °C 28.9 °F /  -1.7 °C 30.24 in /  1023.9 hPa West 0.8 mph /  1.3 km/h 4.6 mph /  7.4 km/h 91 % 0.00 in /  0 mm
03:43 31.1 °F /  -0.5 °C 28.8 °F /  -1.8 °C 30.24 in /  1023.9 hPa NW 2.4 mph /  3.9 km/h 5.0 mph /  8 km/h 91 % 0.00 in /  0 mm
03:48 31.1 °F /  -0.5 °C 28.5 °F /  -1.9 °C 30.24 in /  1023.9 hPa NNW 3.2 mph /  5.1 km/h 6.9 mph /  11.1 km/h 90 % 0.00 in /  0 mm
03:53 31.1 °F /  -0.5 °C 28.5 °F /  -1.9 °C 30.24 in /  1023.9 hPa West 2.2 mph /  3.5 km/h 8.1 mph /  13 km/h 90 % 0.00 in /  0 mm
03:58 31.0 °F /  -0.6 °C 28.1 °F /  -2.2 °C 30.24 in /  1023.9 hPa WNW 3.2 mph /  5.1 km/h 5.8 mph /  9.3 km/h 89 % 0.00 in /  0 mm
04:03 31.0 °F /  -0.6 °C 28.1 °F /  -2.2 °C 30.24 in /  1023.9 hPa WNW 3.0 mph /  4.8 km/h 4.6 mph /  7.4 km/h 89 % 0.00 in /  0 mm
04:08 30.9 °F /  -0.6 °C 28.0 °F /  -2.2 °C 30.24 in /  1023.9 hPa WNW 2.2 mph /  3.5 km/h 3.5 mph /  5.6 km/h 89 % 0.00 in /  0 mm
04:13 30.8 °F /  -0.7 °C 27.9 °F /  -2.3 °C 30.24 in /  1023.9 hPa NW 1.5 mph /  2.4 km/h 3.5 mph /  5.6 km/h 89 % 0.00 in /  0 mm
04:18 30.8 °F /  -0.7 °C 27.9 °F /  -2.3 °C 30.24 in /  1023.9 hPa NW 3.7 mph /  6 km/h 6.0 mph /  9.7 km/h 89 % 0.00 in /  0 mm
04:23 30.7 °F /  -0.7 °C 27.8 °F /  -2.3 °C 30.25 in /  1024.3 hPa WNW 2.8 mph /  4.5 km/h 7.0 mph /  11.3 km/h 89 % 0.00 in /  0 mm
04:29 30.7 °F /  -0.7 °C 27.8 °F /  -2.3 °C 30.24 in /  1023.9 hPa NW 2.9 mph /  4.7 km/h 5.8 mph /  9.3 km/h 89 % 0.00 in /  0 mm
04:34 30.6 °F /  -0.8 °C 27.7 °F /  -2.4 °C 30.25 in /  1024.3 hPa NW 3.1 mph /  5 km/h 4.6 mph /  7.4 km/h 89 % 0.00 in /  0 mm
04:39 30.6 °F /  -0.8 °C 27.7 °F /  -2.4 °C 30.25 in /  1024.3 hPa NW 1.8 mph /  2.9 km/h 3.5 mph /  5.6 km/h 89 % 0.00 in /  0 mm
04:44 30.5 °F /  -0.8 °C 27.6 °F /  -2.4 °C 30.25 in /  1024.3 hPa WNW 2.6 mph /  4.2 km/h 3.0 mph /  4.8 km/h 89 % 0.00 in /  0 mm
04:49 30.5 °F /  -0.8 °C 27.6 °F /  -2.4 °C 30.25 in /  1024.3 hPa WNW 0.8 mph /  1.3 km/h 3.5 mph /  5.6 km/h 89 % 0.00 in /  0 mm
04:54 30.5 °F /  -0.8 °C 27.7 °F /  -2.4 °C 30.25 in /  1024.3 hPa NW 2.0 mph /  3.2 km/h 7.0 mph /  11.3 km/h 89 % 0.00 in /  0 mm
04:59 30.5 °F /  -0.8 °C 27.6 °F /  -2.4 °C 30.25 in /  1024.3 hPa North 3.0 mph /  4.8 km/h 6.9 mph /  11.1 km/h 89 % 0.00 in /  0 mm
05:04 30.5 °F /  -0.8 °C 27.4 °F /  -2.6 °C 30.25 in /  1024.3 hPa NNW 1.9 mph /  3.1 km/h 4.6 mph /  7.4 km/h 88 % 0.00 in /  0 mm
05:09 30.5 °F /  -0.8 °C 27.4 °F /  -2.6 °C 30.25 in /  1024.3 hPa North 2.6 mph /  4.2 km/h 5.8 mph /  9.3 km/h 88 % 0.00 in /  0 mm
05:14 30.5 °F /  -0.8 °C 27.4 °F /  -2.6 °C 30.25 in /  1024.3 hPa NW 2.7 mph /  4.3 km/h 4.6 mph /  7.4 km/h 88 % 0.00 in /  0 mm
05:19 30.4 °F /  -0.9 °C 27.3 °F /  -2.6 °C 30.25 in /  1024.3 hPa NNW 2.6 mph /  4.2 km/h 4.6 mph /  7.4 km/h 88 % 0.00 in /  0 mm
05:24 30.4 °F /  -0.9 °C 27.3 °F /  -2.6 °C 30.25 in /  1024.3 hPa NW 2.6 mph /  4.2 km/h 8.1 mph /  13 km/h 88 % 0.00 in /  0 mm
05:29 30.4 °F /  -0.9 °C 27.3 °F /  -2.6 °C 30.25 in /  1024.3 hPa NNW 1.8 mph /  2.9 km/h 3.5 mph /  5.6 km/h 88 % 0.00 in /  0 mm
05:34 30.3 °F /  -0.9 °C 27.2 °F /  -2.7 °C 30.25 in /  1024.3 hPa NW 1.7 mph /  2.7 km/h 5.8 mph /  9.3 km/h 88 % 0.00 in /  0 mm
05:40 30.3 °F /  -0.9 °C 27.2 °F /  -2.7 °C 30.25 in /  1024.3 hPa NNW 1.0 mph /  1.6 km/h 3.5 mph /  5.6 km/h 88 % 0.00 in /  0 mm
05:45 30.2 °F /  -1 °C 27.1 °F /  -2.7 °C 30.25 in /  1024.3 hPa NW 2.3 mph /  3.7 km/h 3.5 mph /  5.6 km/h 88 % 0.00 in /  0 mm
05:50 30.2 °F /  -1 °C 27.1 °F /  -2.7 °C 30.25 in /  1024.3 hPa WNW 1.4 mph /  2.3 km/h 5.8 mph /  9.3 km/h 88 % 0.00 in /  0 mm
05:55 30.1 °F /  -1.1 °C 27.0 °F /  -2.8 °C 30.26 in /  1024.6 hPa NW 1.1 mph /  1.8 km/h 4.6 mph /  7.4 km/h 88 % 0.00 in /  0 mm
06:00 30.1 °F /  -1.1 °C 27.0 °F /  -2.8 °C 30.26 in /  1024.6 hPa NNW 1.9 mph /  3.1 km/h 3.5 mph /  5.6 km/h 88 % 0.00 in /  0 mm
06:05 30.0 °F /  -1.1 °C 26.9 °F /  -2.8 °C 30.26 in /  1024.6 hPa NNW 2.7 mph /  4.3 km/h 5.0 mph /  8 km/h 88 % 0.00 in /  0 mm
06:10 30.0 °F /  -1.1 °C 26.9 °F /  -2.8 °C 30.26 in /  1024.6 hPa NW 1.8 mph /  2.9 km/h 3.5 mph /  5.6 km/h 88 % 0.00 in /  0 mm
06:15 30.0 °F /  -1.1 °C 26.9 °F /  -2.8 °C 30.26 in /  1024.6 hPa North 0.7 mph /  1.1 km/h 2.3 mph /  3.7 km/h 88 % 0.00 in /  0 mm
06:20 29.9 °F /  -1.2 °C 26.8 °F /  -2.9 °C 30.26 in /  1024.6 hPa North 1.3 mph /  2.1 km/h 3.5 mph /  5.6 km/h 88 % 0.00 in /  0 mm
06:25 29.9 °F /  -1.2 °C 26.8 °F /  -2.9 °C 30.27 in /  1024.9 hPa North 1.5 mph /  2.4 km/h 4.6 mph /  7.4 km/h 88 % 0.00 in /  0 mm
06:30 29.8 °F /  -1.2 °C 26.7 °F /  -2.9 °C 30.27 in /  1024.9 hPa North 0.9 mph /  1.4 km/h 2.3 mph /  3.7 km/h 88 % 0.00 in /  0 mm
06:35 29.8 °F /  -1.2 °C 26.7 °F /  -2.9 °C 30.27 in /  1024.9 hPa NNW 1.2 mph /  1.9 km/h 2.3 mph /  3.7 km/h 88 % 0.00 in /  0 mm
06:40 29.8 °F /  -1.2 °C 26.7 °F /  -2.9 °C 30.27 in /  1024.9 hPa NNE 2.4 mph /  3.9 km/h 3.5 mph /  5.6 km/h 88 % 0.00 in /  0 mm
06:45 29.7 °F /  -1.3 °C 26.6 °F /  -3 °C 30.28 in /  1025.3 hPa North 2.1 mph /  3.4 km/h 5.8 mph /  9.3 km/h 88 % 0.00 in /  0 mm
06:50 29.7 °F /  -1.3 °C 26.6 °F /  -3 °C 30.28 in /  1025.3 hPa NNW 1.8 mph /  2.9 km/h 3.5 mph /  5.6 km/h 88 % 0.00 in /  0 mm
06:55 29.6 °F /  -1.3 °C 26.5 °F /  -3.1 °C 30.28 in /  1025.3 hPa North 2.3 mph /  3.7 km/h 6.0 mph /  9.7 km/h 88 % 0.00 in /  0 mm
07:01 29.6 °F /  -1.3 °C 26.5 °F /  -3.1 °C 30.29 in /  1025.6 hPa NNW 3.2 mph /  5.1 km/h 4.6 mph /  7.4 km/h 88 % 0.00 in /  0 mm
07:06 29.6 °F /  -1.3 °C 26.5 °F /  -3.1 °C 30.29 in /  1025.6 hPa NNW 1.4 mph /  2.3 km/h 3.5 mph /  5.6 km/h 88 % 0.00 in /  0 mm
07:11 29.5 °F /  -1.4 °C 26.4 °F /  -3.1 °C 30.30 in /  1026 hPa North 1.5 mph /  2.4 km/h 3.5 mph /  5.6 km/h 88 % 0.00 in /  0 mm
07:16 29.5 °F /  -1.4 °C 26.4 °F /  -3.1 °C 30.30 in /  1026 hPa North 2.8 mph /  4.5 km/h 5.8 mph /  9.3 km/h 88 % 0.00 in /  0 mm
07:21 29.4 °F /  -1.4 °C 26.3 °F /  -3.2 °C 30.30 in /  1026 hPa North 3.5 mph /  5.6 km/h 5.8 mph /  9.3 km/h 88 % 0.00 in /  0 mm
07:26 29.4 °F /  -1.4 °C 26.3 °F /  -3.2 °C 30.30 in /  1026 hPa North 2.4 mph /  3.9 km/h 3.5 mph /  5.6 km/h 88 % 0.00 in /  0 mm
07:31 29.4 °F /  -1.4 °C 26.3 °F /  -3.2 °C 30.31 in /  1026.3 hPa North 1.2 mph /  1.9 km/h 4.6 mph /  7.4 km/h 88 % 0.00 in /  0 mm
07:36 29.4 °F /  -1.4 °C 26.3 °F /  -3.2 °C 30.31 in /  1026.3 hPa ENE 2.3 mph /  3.7 km/h 5.8 mph /  9.3 km/h 88 % 0.00 in /  0 mm
07:41 29.5 °F /  -1.4 °C 26.4 °F /  -3.1 °C 30.31 in /  1026.3 hPa North 3.0 mph /  4.8 km/h 5.0 mph /  8 km/h 88 % 0.00 in /  0 mm
07:46 29.5 °F /  -1.4 °C 26.4 °F /  -3.1 °C 30.31 in /  1026.3 hPa NE 4.4 mph /  7.1 km/h 10.0 mph /  16.1 km/h 88 % 0.00 in /  0 mm
07:51 29.6 °F /  -1.3 °C 25.9 °F /  -3.4 °C 30.32 in /  1026.6 hPa NNE 4.0 mph /  6.4 km/h 6.9 mph /  11.1 km/h 86 % 0.00 in /  0 mm
07:56 29.8 °F /  -1.2 °C 26.1 °F /  -3.3 °C 30.31 in /  1026.3 hPa North 2.6 mph /  4.2 km/h 4.6 mph /  7.4 km/h 86 % 0.00 in /  0 mm
08:01 29.9 °F /  -1.2 °C 25.9 °F /  -3.4 °C 30.32 in /  1026.6 hPa North 5.3 mph /  8.5 km/h 11.0 mph /  17.7 km/h 85 % 0.00 in /  0 mm
08:06 29.9 °F /  -1.2 °C 25.7 °F /  -3.5 °C 30.32 in /  1026.6 hPa North 4.6 mph /  7.4 km/h 6.9 mph /  11.1 km/h 84 % 0.00 in /  0 mm
08:11 30.0 °F /  -1.1 °C 25.8 °F /  -3.4 °C 30.32 in /  1026.6 hPa NNW 3.9 mph /  6.3 km/h 5.8 mph /  9.3 km/h 84 % 0.00 in /  0 mm
08:16 30.1 °F /  -1.1 °C 25.6 °F /  -3.6 °C 30.33 in /  1027 hPa NNE 3.8 mph /  6.1 km/h 8.1 mph /  13 km/h 83 % 0.00 in /  0 mm
08:21 30.2 °F /  -1 °C 25.7 °F /  -3.5 °C 30.33 in /  1027 hPa NW 3.2 mph /  5.1 km/h 5.8 mph /  9.3 km/h 83 % 0.00 in /  0 mm
08:26 30.3 °F /  -0.9 °C 25.5 °F /  -3.6 °C 30.33 in /  1027 hPa North 3.1 mph /  5 km/h 10.4 mph /  16.7 km/h 82 % 0.00 in /  0 mm
08:31 30.4 °F /  -0.9 °C 25.6 °F /  -3.6 °C 30.33 in /  1027 hPa NNW 4.0 mph /  6.4 km/h 6.0 mph /  9.7 km/h 82 % 0.00 in /  0 mm
08:37 30.5 °F /  -0.8 °C 25.4 °F /  -3.7 °C 30.33 in /  1027 hPa North 4.2 mph /  6.8 km/h 6.9 mph /  11.1 km/h 81 % 0.00 in /  0 mm
08:42 30.6 °F /  -0.8 °C 25.5 °F /  -3.6 °C 30.33 in /  1027 hPa NNE 3.6 mph /  5.8 km/h 5.8 mph /  9.3 km/h 81 % 0.00 in /  0 mm
08:45 30.7 °F /  -0.7 °C 25.6 °F /  -3.6 °C 30.33 in /  1027 hPa NNW 5.4 mph /  8.7 km/h 9.2 mph /  14.8 km/h 81 % 0.00 in /  0 mm
08:50 30.8 °F /  -0.7 °C 25.4 °F /  -3.7 °C 30.33 in /  1027 hPa North 1.6 mph /  2.6 km/h 3.5 mph /  5.6 km/h 80 % 0.00 in /  0 mm
08:55 31.0 °F /  -0.6 °C 25.6 °F /  -3.6 °C 30.33 in /  1027 hPa NNE 2.8 mph /  4.5 km/h 4.0 mph /  6.4 km/h 80 % 0.00 in /  0 mm
09:00 31.1 °F /  -0.5 °C 25.7 °F /  -3.5 °C 30.34 in /  1027.3 hPa WNW 2.0 mph /  3.2 km/h 3.5 mph /  5.6 km/h 80 % 0.00 in /  0 mm
09:05 31.3 °F /  -0.4 °C 25.8 °F /  -3.4 °C 30.33 in /  1027 hPa NW 1.5 mph /  2.4 km/h 3.5 mph /  5.6 km/h 80 % 0.00 in /  0 mm
09:10 31.4 °F /  -0.3 °C 25.6 °F /  -3.6 °C 30.33 in /  1027 hPa NNW 3.2 mph /  5.1 km/h 5.8 mph /  9.3 km/h 79 % 0.00 in /  0 mm
09:15 31.5 °F /  -0.3 °C 25.7 °F /  -3.5 °C 30.34 in /  1027.3 hPa North 2.5 mph /  4 km/h 4.6 mph /  7.4 km/h 79 % 0.00 in /  0 mm
09:20 31.7 °F /  -0.2 °C 25.9 °F /  -3.4 °C 30.33 in /  1027 hPa NW 1.8 mph /  2.9 km/h 3.5 mph /  5.6 km/h 79 % 0.00 in /  0 mm
09:25 31.9 °F /  -0.1 °C 26.1 °F /  -3.3 °C 30.34 in /  1027.3 hPa NW 1.4 mph /  2.3 km/h 3.5 mph /  5.6 km/h 79 % 0.00 in /  0 mm
09:30 32.2 °F /  0.1 °C 26.1 °F /  -3.3 °C 30.34 in /  1027.3 hPa NW 2.7 mph /  4.3 km/h 5.8 mph /  9.3 km/h 78 % 0.00 in /  0 mm
09:35 32.4 °F /  0.2 °C 26.0 °F /  -3.3 °C 30.33 in /  1027 hPa NW 2.4 mph /  3.9 km/h 4.6 mph /  7.4 km/h 77 % 0.00 in /  0 mm
09:41 32.6 °F /  0.3 °C 26.2 °F /  -3.2 °C 30.34 in /  1027.3 hPa NNW 3.9 mph /  6.3 km/h 6.9 mph /  11.1 km/h 77 % 0.00 in /  0 mm
09:46 32.8 °F /  0.4 °C 26.7 °F /  -2.9 °C 30.34 in /  1027.3 hPa NNW 4.3 mph /  6.9 km/h 5.8 mph /  9.3 km/h 78 % 0.00 in /  0 mm
09:51 33.1 °F /  0.6 °C 26.7 °F /  -2.9 °C 30.34 in /  1027.3 hPa NNW 4.5 mph /  7.2 km/h 8.1 mph /  13 km/h 77 % 0.00 in /  0 mm
09:56 33.3 °F /  0.7 °C 26.9 °F /  -2.8 °C 30.34 in /  1027.3 hPa North 2.4 mph /  3.9 km/h 4.6 mph /  7.4 km/h 77 % 0.00 in /  0 mm
10:01 33.5 °F /  0.8 °C 27.1 °F /  -2.7 °C 30.34 in /  1027.3 hPa WNW 2.8 mph /  4.5 km/h 3.0 mph /  4.8 km/h 77 % 0.00 in /  0 mm
10:07 33.7 °F /  0.9 °C 26.9 °F /  -2.8 °C 30.34 in /  1027.3 hPa NNW 3.7 mph /  6 km/h 4.6 mph /  7.4 km/h 76 % 0.00 in /  0 mm
10:12 33.9 °F /  1.1 °C 27.1 °F /  -2.7 °C 30.34 in /  1027.3 hPa North 2.3 mph /  3.7 km/h 4.0 mph /  6.4 km/h 76 % 0.00 in /  0 mm
10:17 34.0 °F /  1.1 °C 27.2 °F /  -2.7 °C 30.34 in /  1027.3 hPa NW 4.2 mph /  6.8 km/h 6.0 mph /  9.7 km/h 76 % 0.00 in /  0 mm
10:22 34.1 °F /  1.2 °C 27.3 °F /  -2.6 °C 30.34 in /  1027.3 hPa WNW 3.7 mph /  6 km/h 7.0 mph /  11.3 km/h 76 % 0.00 in /  0 mm
10:27 34.2 °F /  1.2 °C 27.4 °F /  -2.6 °C 30.34 in /  1027.3 hPa NW 3.3 mph /  5.3 km/h 6.9 mph /  11.1 km/h 76 % 0.00 in /  0 mm
10:32 34.3 °F /  1.3 °C 27.2 °F /  -2.7 °C 30.34 in /  1027.3 hPa WNW 3.3 mph /  5.3 km/h 6.9 mph /  11.1 km/h 75 % 0.00 in /  0 mm
10:37 34.3 °F /  1.3 °C 27.2 °F /  -2.7 °C 30.34 in /  1027.3 hPa NNW 2.0 mph /  3.2 km/h 8.1 mph /  13 km/h 75 % 0.00 in /  0 mm
10:42 34.4 °F /  1.3 °C 27.3 °F /  -2.6 °C 30.34 in /  1027.3 hPa West 4.5 mph /  7.2 km/h 6.9 mph /  11.1 km/h 75 % 0.00 in /  0 mm
10:47 34.4 °F /  1.3 °C 27.3 °F /  -2.6 °C 30.33 in /  1027 hPa NW 3.0 mph /  4.8 km/h 5.0 mph /  8 km/h 75 % 0.00 in /  0 mm
10:52 34.4 °F /  1.3 °C 27.0 °F /  -2.8 °C 30.33 in /  1027 hPa North 1.9 mph /  3.1 km/h 5.8 mph /  9.3 km/h 74 % 0.00 in /  0 mm
10:57 34.5 °F /  1.4 °C 27.1 °F /  -2.7 °C 30.33 in /  1027 hPa WNW 4.3 mph /  6.9 km/h 6.9 mph /  11.1 km/h 74 % 0.00 in /  0 mm
11:02 34.6 °F /  1.4 °C 26.8 °F /  -2.9 °C 30.33 in /  1027 hPa West 4.3 mph /  6.9 km/h 6.9 mph /  11.1 km/h 73 % 0.00 in /  0 mm
11:07 34.7 °F /  1.5 °C 26.9 °F /  -2.8 °C 30.33 in /  1027 hPa NNW 4.7 mph /  7.6 km/h 8.1 mph /  13 km/h 73 % 0.00 in /  0 mm
11:12 34.8 °F /  1.6 °C 27.0 °F /  -2.8 °C 30.33 in /  1027 hPa NW 2.9 mph /  4.7 km/h 5.8 mph /  9.3 km/h 73 % 0.00 in /  0 mm
11:17 34.8 °F /  1.6 °C 27.0 °F /  -2.8 °C 30.32 in /  1026.6 hPa NW 3.6 mph /  5.8 km/h 3.6 mph /  5.8 km/h 73 % 0.00 in /  0 mm
11:23 34.7 °F /  1.5 °C 26.9 °F /  -2.8 °C 30.32 in /  1026.6 hPa NW 3.4 mph /  5.5 km/h 4.0 mph /  6.4 km/h 73 % 0.00 in /  0 mm
11:28 34.7 °F /  1.5 °C 26.6 °F /  -3 °C 30.32 in /  1026.6 hPa WNW 3.7 mph /  6 km/h 10.4 mph /  16.7 km/h 72 % 0.00 in /  0 mm
11:33 34.7 °F /  1.5 °C 26.9 °F /  -2.8 °C 30.32 in /  1026.6 hPa NW 3.9 mph /  6.3 km/h 5.8 mph /  9.3 km/h 73 % 0.00 in /  0 mm
11:38 34.7 °F /  1.5 °C 26.9 °F /  -2.8 °C 30.32 in /  1026.6 hPa NW 3.9 mph /  6.3 km/h 9.2 mph /  14.8 km/h 73 % 0.00 in /  0 mm
11:43 34.8 °F /  1.6 °C 26.7 °F /  -2.9 °C 30.32 in /  1026.6 hPa WNW 5.6 mph /  9 km/h 9.2 mph /  14.8 km/h 72 % 0.00 in /  0 mm
11:48 34.8 °F /  1.6 °C 26.7 °F /  -2.9 °C 30.32 in /  1026.6 hPa West 3.9 mph /  6.3 km/h 6.9 mph /  11.1 km/h 72 % 0.00 in /  0 mm
11:53 34.8 °F /  1.6 °C 26.7 °F /  -2.9 °C 30.31 in /  1026.3 hPa West 3.9 mph /  6.3 km/h 4.6 mph /  7.4 km/h 72 % 0.00 in /  0 mm
11:58 34.9 °F /  1.6 °C 26.8 °F /  -2.9 °C 30.31 in /  1026.3 hPa NW 3.1 mph /  5 km/h 8.1 mph /  13 km/h 72 % 0.00 in /  0 mm
12:03 34.9 °F /  1.6 °C 26.8 °F /  -2.9 °C 30.31 in /  1026.3 hPa NNW 3.5 mph /  5.6 km/h 4.6 mph /  7.4 km/h 72 % 0.00 in /  0 mm
12:08 35.0 °F /  1.7 °C 26.5 °F /  -3.1 °C 30.31 in /  1026.3 hPa NW 4.6 mph /  7.4 km/h 7.0 mph /  11.3 km/h 71 % 0.00 in /  0 mm
12:13 35.1 °F /  1.7 °C 27.0 °F /  -2.8 °C 30.31 in /  1026.3 hPa WNW 5.7 mph /  9.2 km/h 10.4 mph /  16.7 km/h 72 % 0.00 in /  0 mm
12:18 35.3 °F /  1.8 °C 26.8 °F /  -2.9 °C 30.31 in /  1026.3 hPa West 2.1 mph /  3.4 km/h 4.0 mph /  6.4 km/h 71 % 0.00 in /  0 mm
12:23 35.5 °F /  1.9 °C 27.0 °F /  -2.8 °C 30.30 in /  1026 hPa NW 3.9 mph /  6.3 km/h 5.8 mph /  9.3 km/h 71 % 0.00 in /  0 mm
12:28 35.8 °F /  2.1 °C 27.3 °F /  -2.6 °C 30.30 in /  1026 hPa NW 2.1 mph /  3.4 km/h 5.0 mph /  8 km/h 71 % 0.00 in /  0 mm
12:33 36.0 °F /  2.2 °C 27.2 °F /  -2.7 °C 30.30 in /  1026 hPa WNW 6.0 mph /  9.7 km/h 9.2 mph /  14.8 km/h 70 % 0.00 in /  0 mm
12:38 36.2 °F /  2.3 °C 26.6 °F /  -3 °C 30.30 in /  1026 hPa WNW 4.4 mph /  7.1 km/h 9.2 mph /  14.8 km/h 68 % 0.00 in /  0 mm
12:44 36.4 °F /  2.4 °C 27.2 °F /  -2.7 °C 30.30 in /  1026 hPa WNW 2.7 mph /  4.3 km/h 5.8 mph /  9.3 km/h 69 % 0.00 in /  0 mm
12:49 36.5 °F /  2.5 °C 26.9 °F /  -2.8 °C 30.29 in /  1025.6 hPa WNW 2.1 mph /  3.4 km/h 4.6 mph /  7.4 km/h 68 % 0.00 in /  0 mm
12:54 36.6 °F /  2.6 °C 27.0 °F /  -2.8 °C 30.29 in /  1025.6 hPa WNW 4.0 mph /  6.4 km/h 6.9 mph /  11.1 km/h 68 % 0.00 in /  0 mm
12:59 36.8 °F /  2.7 °C 26.9 °F /  -2.8 °C 30.29 in /  1025.6 hPa WNW 2.6 mph /  4.2 km/h 5.0 mph /  8 km/h 67 % 0.00 in /  0 mm
13:04 36.8 °F /  2.7 °C 26.9 °F /  -2.8 °C 30.29 in /  1025.6 hPa NW 2.0 mph /  3.2 km/h 9.0 mph /  14.5 km/h 67 % 0.00 in /  0 mm
13:09 37.0 °F /  2.8 °C 27.1 °F /  -2.7 °C 30.29 in /  1025.6 hPa WNW 2.0 mph /  3.2 km/h 7.0 mph /  11.3 km/h 67 % 0.00 in /  0 mm
13:14 37.1 °F /  2.8 °C 26.8 °F /  -2.9 °C 30.29 in /  1025.6 hPa WNW 3.0 mph /  4.8 km/h 8.0 mph /  12.9 km/h 66 % 0.00 in /  0 mm
13:19 37.1 °F /  2.8 °C 26.4 °F /  -3.1 °C 30.29 in /  1025.6 hPa WNW 6.0 mph /  9.7 km/h 8.0 mph /  12.9 km/h 65 % 0.00 in /  0 mm
13:24 37.1 °F /  2.8 °C 26.0 °F /  -3.3 °C 30.29 in /  1025.6 hPa WNW 6.0 mph /  9.7 km/h 10.0 mph /  16.1 km/h 64 % 0.00 in /  0 mm
13:29 37.2 °F /  2.9 °C 26.1 °F /  -3.3 °C 30.29 in /  1025.6 hPa WNW 3.0 mph /  4.8 km/h 9.0 mph /  14.5 km/h 64 % 0.00 in /  0 mm
13:34 37.3 °F /  2.9 °C 26.6 °F /  -3 °C 30.29 in /  1025.6 hPa WNW 3.0 mph /  4.8 km/h 10.0 mph /  16.1 km/h 65 % 0.00 in /  0 mm
13:39 37.5 °F /  3.1 °C 26.8 °F /  -2.9 °C 30.29 in /  1025.6 hPa West 3.0 mph /  4.8 km/h 7.0 mph /  11.3 km/h 65 % 0.00 in /  0 mm
13:44 37.7 °F /  3.2 °C 26.6 °F /  -3 °C 30.29 in /  1025.6 hPa WSW 3.4 mph /  5.5 km/h 9.2 mph /  14.8 km/h 64 % 0.00 in /  0 mm
13:49 37.8 °F /  3.2 °C 26.7 °F /  -2.9 °C 30.29 in /  1025.6 hPa WSW 3.0 mph /  4.8 km/h 9.0 mph /  14.5 km/h 64 % 0.00 in /  0 mm
13:54 38.1 °F /  3.4 °C 27.4 °F /  -2.6 °C 30.29 in /  1025.6 hPa WSW 2.4 mph /  3.9 km/h 7.0 mph /  11.3 km/h 65 % 0.00 in /  0 mm
13:59 38.2 °F /  3.4 °C 27.1 °F /  -2.7 °C 30.29 in /  1025.6 hPa WNW 4.3 mph /  6.9 km/h 6.9 mph /  11.1 km/h 64 % 0.00 in /  0 mm
14:04 38.2 °F /  3.4 °C 26.7 °F /  -2.9 °C 30.29 in /  1025.6 hPa West 4.0 mph /  6.4 km/h 6.9 mph /  11.1 km/h 63 % 0.00 in /  0 mm
14:09 38.2 °F /  3.4 °C 27.1 °F /  -2.7 °C 30.29 in /  1025.6 hPa WNW 1.5 mph /  2.4 km/h 3.5 mph /  5.6 km/h 64 % 0.00 in /  0 mm
14:14 38.2 °F /  3.4 °C 26.7 °F /  -2.9 °C 30.28 in /  1025.3 hPa WNW 4.5 mph /  7.2 km/h 8.0 mph /  12.9 km/h 63 % 0.00 in /  0 mm
14:19 38.2 °F /  3.4 °C 26.3 °F /  -3.2 °C 30.28 in /  1025.3 hPa NW 5.4 mph /  8.7 km/h 8.0 mph /  12.9 km/h 62 % 0.00 in /  0 mm
14:24 38.2 °F /  3.4 °C 26.3 °F /  -3.2 °C 30.28 in /  1025.3 hPa WNW 1.6 mph /  2.6 km/h 2.3 mph /  3.7 km/h 62 % 0.00 in /  0 mm
14:29 38.0 °F /  3.3 °C 26.1 °F /  -3.3 °C 30.28 in /  1025.3 hPa WNW 2.5 mph /  4 km/h 5.8 mph /  9.3 km/h 62 % 0.00 in /  0 mm
14:34 37.9 °F /  3.3 °C 26.0 °F /  -3.3 °C 30.28 in /  1025.3 hPa WSW 4.0 mph /  6.4 km/h 7.0 mph /  11.3 km/h 62 % 0.00 in /  0 mm
14:40 37.7 °F /  3.2 °C 25.8 °F /  -3.4 °C 30.28 in /  1025.3 hPa WNW 4.7 mph /  7.6 km/h 6.0 mph /  9.7 km/h 62 % 0.00 in /  0 mm
14:45 37.6 °F /  3.1 °C 25.7 °F /  -3.5 °C 30.29 in /  1025.6 hPa NW 3.8 mph /  6.1 km/h 7.0 mph /  11.3 km/h 62 % 0.00 in /  0 mm
14:50 37.4 °F /  3 °C 25.9 °F /  -3.4 °C 30.29 in /  1025.6 hPa NW 3.2 mph /  5.1 km/h 4.0 mph /  6.4 km/h 63 % 0.00 in /  0 mm
14:55 37.3 °F /  2.9 °C 25.8 °F /  -3.4 °C 30.29 in /  1025.6 hPa WNW 3.2 mph /  5.1 km/h 4.0 mph /  6.4 km/h 63 % 0.00 in /  0 mm
15:00 37.3 °F /  2.9 °C 25.8 °F /  -3.4 °C 30.29 in /  1025.6 hPa West 2.4 mph /  3.9 km/h 5.0 mph /  8 km/h 63 % 0.00 in /  0 mm
15:05 37.2 °F /  2.9 °C 26.1 °F /  -3.3 °C 30.29 in /  1025.6 hPa NW 1.4 mph /  2.3 km/h 3.5 mph /  5.6 km/h 64 % 0.00 in /  0 mm
15:10 37.1 °F /  2.8 °C 26.0 °F /  -3.3 °C 30.29 in /  1025.6 hPa NW 4.4 mph /  7.1 km/h 6.0 mph /  9.7 km/h 64 % 0.00 in /  0 mm
15:15 37.1 °F /  2.8 °C 26.0 °F /  -3.3 °C 30.29 in /  1025.6 hPa West 1.1 mph /  1.8 km/h 3.5 mph /  5.6 km/h 64 % 0.00 in /  0 mm
15:20 37.0 °F /  2.8 °C 25.9 °F /  -3.4 °C 30.29 in /  1025.6 hPa West 0.5 mph /  0.8 km/h 3.5 mph /  5.6 km/h 64 % 0.00 in /  0 mm
15:25 37.0 °F /  2.8 °C 25.9 °F /  -3.4 °C 30.29 in /  1025.6 hPa WSW 4.5 mph /  7.2 km/h 5.8 mph /  9.3 km/h 64 % 0.00 in /  0 mm
15:30 37.0 °F /  2.8 °C 25.9 °F /  -3.4 °C 30.30 in /  1026 hPa NW 4.3 mph /  6.9 km/h 6.0 mph /  9.7 km/h 64 % 0.00 in /  0 mm
15:35 37.1 °F /  2.8 °C 26.0 °F /  -3.3 °C 30.30 in /  1026 hPa WSW 1.9 mph /  3.1 km/h 6.0 mph /  9.7 km/h 64 % 0.00 in /  0 mm
15:40 37.1 °F /  2.8 °C 26.0 °F /  -3.3 °C 30.30 in /  1026 hPa WNW 2.4 mph /  3.9 km/h 4.6 mph /  7.4 km/h 64 % 0.00 in /  0 mm
15:45 37.1 °F /  2.8 °C 26.0 °F /  -3.3 °C 30.30 in /  1026 hPa WNW 0.8 mph /  1.3 km/h 4.0 mph /  6.4 km/h 64 % 0.00 in /  0 mm
15:50 37.1 °F /  2.8 °C 26.0 °F /  -3.3 °C 30.30 in /  1026 hPa West 1.4 mph /  2.3 km/h 6.0 mph /  9.7 km/h 64 % 0.00 in /  0 mm
15:55 37.1 °F /  2.8 °C 26.0 °F /  -3.3 °C 30.30 in /  1026 hPa WNW 1.3 mph /  2.1 km/h 3.5 mph /  5.6 km/h 64 % 0.00 in /  0 mm
16:00 37.1 °F /  2.8 °C 26.0 °F /  -3.3 °C 30.30 in /  1026 hPa WNW 0.1 mph /  0.2 km/h 1.2 mph /  1.9 km/h 64 % 0.00 in /  0 mm
16:05 37.0 °F /  2.8 °C 26.3 °F /  -3.2 °C 30.30 in /  1026 hPa WNW 1.4 mph /  2.3 km/h 3.0 mph /  4.8 km/h 65 % 0.00 in /  0 mm
16:10 37.0 °F /  2.8 °C 26.3 °F /  -3.2 °C 30.30 in /  1026 hPa NW 1.5 mph /  2.4 km/h 3.5 mph /  5.6 km/h 65 % 0.00 in /  0 mm
16:15 37.0 °F /  2.8 °C 25.9 °F /  -3.4 °C 30.30 in /  1026 hPa WNW 3.1 mph /  5 km/h 3.5 mph /  5.6 km/h 64 % 0.00 in /  0 mm
16:21 36.9 °F /  2.7 °C 25.5 °F /  -3.6 °C 30.30 in /  1026 hPa NNW 2.6 mph /  4.2 km/h 3.5 mph /  5.6 km/h 63 % 0.00 in /  0 mm
16:26 36.9 °F /  2.7 °C 25.9 °F /  -3.4 °C 30.30 in /  1026 hPa NW 0.1 mph /  0.2 km/h 1.2 mph /  1.9 km/h 64 % 0.00 in /  0 mm
16:31 36.9 °F /  2.7 °C 26.2 °F /  -3.2 °C 30.30 in /  1026 hPa NW 0.7 mph /  1.1 km/h 4.0 mph /  6.4 km/h 65 % 0.00 in /  0 mm
16:36 36.8 °F /  2.7 °C 25.8 °F /  -3.4 °C 30.31 in /  1026.3 hPa NW 1.3 mph /  2.1 km/h 3.5 mph /  5.6 km/h 64 % 0.00 in /  0 mm
16:41 36.7 °F /  2.6 °C 25.7 °F /  -3.5 °C 30.31 in /  1026.3 hPa WNW 0.1 mph /  0.2 km/h 3.5 mph /  5.6 km/h 64 % 0.00 in /  0 mm
16:46 36.6 °F /  2.6 °C 25.6 °F /  -3.6 °C 30.31 in /  1026.3 hPa WNW 0.2 mph /  0.3 km/h 3.5 mph /  5.6 km/h 64 % 0.00 in /  0 mm
16:51 36.5 °F /  2.5 °C 25.5 °F /  -3.6 °C 30.31 in /  1026.3 hPa Calm   3.5 mph /  5.6 km/h 64 % 0.00 in /  0 mm
16:56 36.4 °F /  2.4 °C 25.4 °F /  -3.7 °C 30.31 in /  1026.3 hPa Calm   1.2 mph /  1.9 km/h 64 % 0.00 in /  0 mm
17:01 36.2 °F /  2.3 °C 25.6 °F /  -3.6 °C 30.31 in /  1026.3 hPa Calm   1.2 mph /  1.9 km/h 65 % 0.00 in /  0 mm
17:06 36.0 °F /  2.2 °C 25.4 °F /  -3.7 °C 30.31 in /  1026.3 hPa NW 0.5 mph /  0.8 km/h 1.2 mph /  1.9 km/h 65 % 0.00 in /  0 mm
17:11 35.7 °F /  2.1 °C 25.4 °F /  -3.7 °C 30.31 in /  1026.3 hPa NW 0.4 mph /  0.6 km/h 2.0 mph /  3.2 km/h 66 % 0.00 in /  0 mm
17:16 35.5 °F /  1.9 °C 25.6 °F /  -3.6 °C 30.31 in /  1026.3 hPa NW 0.5 mph /  0.8 km/h 2.3 mph /  3.7 km/h 67 % 0.00 in /  0 mm
17:21 35.3 °F /  1.8 °C 25.8 °F /  -3.4 °C 30.32 in /  1026.6 hPa Calm   1.2 mph /  1.9 km/h 68 % 0.00 in /  0 mm
17:26 35.1 °F /  1.7 °C 25.6 °F /  -3.6 °C 30.32 in /  1026.6 hPa Calm     68 % 0.00 in /  0 mm
17:32 34.8 °F /  1.6 °C 25.7 °F /  -3.5 °C 30.32 in /  1026.6 hPa NW 0.4 mph /  0.6 km/h 2.3 mph /  3.7 km/h 69 % 0.00 in /  0 mm
17:37 34.3 °F /  1.3 °C 25.5 °F /  -3.6 °C 30.32 in /  1026.6 hPa NW 0.9 mph /  1.4 km/h 2.3 mph /  3.7 km/h 70 % 0.00 in /  0 mm
17:42 33.9 °F /  1.1 °C 25.5 °F /  -3.6 °C 30.33 in /  1027 hPa NW 0.4 mph /  0.6 km/h 1.2 mph /  1.9 km/h 71 % 0.00 in /  0 mm
17:47 33.7 °F /  0.9 °C 25.3 °F /  -3.7 °C 30.33 in /  1027 hPa NW 0.2 mph /  0.3 km/h 1.2 mph /  1.9 km/h 71 % 0.00 in /  0 mm
17:52 33.3 °F /  0.7 °C 25.2 °F /  -3.8 °C 30.33 in /  1027 hPa NW 0.2 mph /  0.3 km/h 2.3 mph /  3.7 km/h 72 % 0.00 in /  0 mm
17:57 33.1 °F /  0.6 °C 25.4 °F /  -3.7 °C 30.33 in /  1027 hPa NW 1.3 mph /  2.1 km/h 2.3 mph /  3.7 km/h 73 % 0.00 in /  0 mm
18:02 32.9 °F /  0.5 °C 25.2 °F /  -3.8 °C 30.33 in /  1027 hPa NW 0.3 mph /  0.5 km/h 1.0 mph /  1.6 km/h 73 % 0.00 in /  0 mm
18:07 32.7 °F /  0.4 °C 25.3 °F /  -3.7 °C 30.33 in /  1027 hPa NW 0.4 mph /  0.6 km/h 1.2 mph /  1.9 km/h 74 % 0.00 in /  0 mm
18:12 32.5 °F /  0.3 °C 25.5 °F /  -3.6 °C 30.34 in /  1027.3 hPa NW 0.2 mph /  0.3 km/h 1.2 mph /  1.9 km/h 75 % 0.00 in /  0 mm
18:17 32.3 °F /  0.2 °C 25.6 °F /  -3.6 °C 30.33 in /  1027 hPa NW 1.3 mph /  2.1 km/h 2.3 mph /  3.7 km/h 76 % 0.00 in /  0 mm
18:22 32.0 °F /  0 °C 25.3 °F /  -3.7 °C 30.33 in /  1027 hPa NW 0.3 mph /  0.5 km/h 1.2 mph /  1.9 km/h 76 % 0.00 in /  0 mm
18:27 31.8 °F /  -0.1 °C 25.1 °F /  -3.8 °C 30.33 in /  1027 hPa NW 0.3 mph /  0.5 km/h 1.2 mph /  1.9 km/h 76 % 0.00 in /  0 mm
18:32 31.6 °F /  -0.2 °C 25.2 °F /  -3.8 °C 30.34 in /  1027.3 hPa NW 1.2 mph /  1.9 km/h 2.3 mph /  3.7 km/h 77 % 0.00 in /  0 mm
18:38 31.4 °F /  -0.3 °C 25.0 °F /  -3.9 °C 30.34 in /  1027.3 hPa NW 1.4 mph /  2.3 km/h 3.5 mph /  5.6 km/h 77 % 0.00 in /  0 mm
18:43 31.3 °F /  -0.4 °C 25.2 °F /  -3.8 °C 30.34 in /  1027.3 hPa Calm   1.2 mph /  1.9 km/h 78 % 0.00 in /  0 mm
18:48 31.1 °F /  -0.5 °C 25.0 °F /  -3.9 °C 30.35 in /  1027.7 hPa NW 1.1 mph /  1.8 km/h 2.3 mph /  3.7 km/h 78 % 0.00 in /  0 mm
18:53 31.0 °F /  -0.6 °C 24.9 °F /  -3.9 °C 30.34 in /  1027.3 hPa NW 2.0 mph /  3.2 km/h 3.0 mph /  4.8 km/h 78 % 0.00 in /  0 mm
18:58 30.8 °F /  -0.7 °C 25.1 °F /  -3.8 °C 30.34 in /  1027.3 hPa WNW 1.1 mph /  1.8 km/h 2.3 mph /  3.7 km/h 79 % 0.00 in /  0 mm
19:03 30.7 °F /  -0.7 °C 25.0 °F /  -3.9 °C 30.34 in /  1027.3 hPa WNW 1.6 mph /  2.6 km/h 3.5 mph /  5.6 km/h 79 % 0.00 in /  0 mm
19:08 30.6 °F /  -0.8 °C 24.9 °F /  -3.9 °C 30.34 in /  1027.3 hPa WNW 0.9 mph /  1.4 km/h 2.3 mph /  3.7 km/h 79 % 0.00 in /  0 mm
19:13 30.5 °F /  -0.8 °C 24.8 °F /  -4 °C 30.34 in /  1027.3 hPa WNW 0.6 mph /  1 km/h 2.3 mph /  3.7 km/h 79 % 0.00 in /  0 mm
19:18 30.4 °F /  -0.9 °C 25.0 °F /  -3.9 °C 30.35 in /  1027.7 hPa WNW 0.2 mph /  0.3 km/h 3.5 mph /  5.6 km/h 80 % 0.00 in /  0 mm
19:23 30.3 °F /  -0.9 °C 24.9 °F /  -3.9 °C 30.35 in /  1027.7 hPa WNW 0.1 mph /  0.2 km/h 1.2 mph /  1.9 km/h 80 % 0.00 in /  0 mm
19:28 30.3 °F /  -0.9 °C 24.9 °F /  -3.9 °C 30.34 in /  1027.3 hPa WNW 0.5 mph /  0.8 km/h 2.3 mph /  3.7 km/h 80 % 0.00 in /  0 mm
19:33 30.2 °F /  -1 °C 24.8 °F /  -4 °C 30.34 in /  1027.3 hPa WNW 0.2 mph /  0.3 km/h 1.2 mph /  1.9 km/h 80 % 0.00 in /  0 mm
19:38 30.1 °F /  -1.1 °C 24.7 °F /  -4.1 °C 30.34 in /  1027.3 hPa WNW 1.4 mph /  2.3 km/h 2.3 mph /  3.7 km/h 80 % 0.00 in /  0 mm
19:43 30.1 °F /  -1.1 °C 24.7 °F /  -4.1 °C 30.34 in /  1027.3 hPa WNW 0.4 mph /  0.6 km/h 2.3 mph /  3.7 km/h 80 % 0.00 in /  0 mm
19:48 30.0 °F /  -1.1 °C 24.6 °F /  -4.1 °C 30.34 in /  1027.3 hPa WNW 1.0 mph /  1.6 km/h 2.3 mph /  3.7 km/h 80 % 0.00 in /  0 mm
19:54 29.9 °F /  -1.2 °C 24.8 °F /  -4 °C 30.34 in /  1027.3 hPa Calm   1.2 mph /  1.9 km/h 81 % 0.00 in /  0 mm
19:59 29.8 °F /  -1.2 °C 25.0 °F /  -3.9 °C 30.34 in /  1027.3 hPa WNW 0.9 mph /  1.4 km/h 3.5 mph /  5.6 km/h 82 % 0.00 in /  0 mm
20:04 29.8 °F /  -1.2 °C 25.0 °F /  -3.9 °C 30.34 in /  1027.3 hPa WNW 1.1 mph /  1.8 km/h 2.3 mph /  3.7 km/h 82 % 0.00 in /  0 mm
20:09 29.7 °F /  -1.3 °C 24.9 °F /  -3.9 °C 30.35 in /  1027.7 hPa WNW 2.3 mph /  3.7 km/h 3.5 mph /  5.6 km/h 82 % 0.00 in /  0 mm
20:14 29.8 °F /  -1.2 °C 25.3 °F /  -3.7 °C 30.35 in /  1027.7 hPa West 1.1 mph /  1.8 km/h 1.2 mph /  1.9 km/h 83 % 0.00 in /  0 mm
20:19 29.8 °F /  -1.2 °C 25.3 °F /  -3.7 °C 30.36 in /  1028 hPa West 1.0 mph /  1.6 km/h 2.3 mph /  3.7 km/h 83 % 0.00 in /  0 mm
20:24 29.8 °F /  -1.2 °C 25.3 °F /  -3.7 °C 30.36 in /  1028 hPa West 1.0 mph /  1.6 km/h 3.0 mph /  4.8 km/h 83 % 0.00 in /  0 mm
20:29 29.9 °F /  -1.2 °C 25.4 °F /  -3.7 °C 30.36 in /  1028 hPa West 1.0 mph /  1.6 km/h 4.0 mph /  6.4 km/h 83 % 0.00 in /  0 mm
20:34 30.0 °F /  -1.1 °C 25.5 °F /  -3.6 °C 30.36 in /  1028 hPa West 1.0 mph /  1.6 km/h 3.0 mph /  4.8 km/h 83 % 0.00 in /  0 mm
20:39 30.1 °F /  -1.1 °C 25.6 °F /  -3.6 °C 30.37 in /  1028.3 hPa West 2.0 mph /  3.2 km/h 4.0 mph /  6.4 km/h 83 % 0.00 in /  0 mm
20:44 30.2 °F /  -1 °C 25.6 °F /  -3.6 °C 30.37 in /  1028.3 hPa West 2.0 mph /  3.2 km/h 4.0 mph /  6.4 km/h 83 % 0.00 in /  0 mm
20:49 30.3 °F /  -0.9 °C 25.8 °F /  -3.4 °C 30.38 in /  1028.7 hPa WNW 1.0 mph /  1.6 km/h 3.0 mph /  4.8 km/h 83 % 0.00 in /  0 mm
20:54 30.4 °F /  -0.9 °C 25.6 °F /  -3.6 °C 30.37 in /  1028.3 hPa WNW 0.5 mph /  0.8 km/h 3.5 mph /  5.6 km/h 82 % 0.00 in /  0 mm
20:59 30.5 °F /  -0.8 °C 25.7 °F /  -3.5 °C 30.37 in /  1028.3 hPa WNW 0.5 mph /  0.8 km/h 1.0 mph /  1.6 km/h 82 % 0.00 in /  0 mm
21:04 30.6 °F /  -0.8 °C 25.5 °F /  -3.6 °C 30.37 in /  1028.3 hPa West 0.5 mph /  0.8 km/h 2.3 mph /  3.7 km/h 81 % 0.00 in /  0 mm
21:09 30.7 °F /  -0.7 °C 25.6 °F /  -3.6 °C 30.36 in /  1028 hPa West 0.3 mph /  0.5 km/h 3.5 mph /  5.6 km/h 81 % 0.00 in /  0 mm
21:14 30.7 °F /  -0.7 °C 25.6 °F /  -3.6 °C 30.36 in /  1028 hPa Calm   2.3 mph /  3.7 km/h 81 % 0.00 in /  0 mm
21:19 30.7 °F /  -0.7 °C 25.3 °F /  -3.7 °C 30.37 in /  1028.3 hPa West 0.6 mph /  1 km/h 2.3 mph /  3.7 km/h 80 % 0.00 in /  0 mm
21:24 30.6 °F /  -0.8 °C 25.2 °F /  -3.8 °C 30.37 in /  1028.3 hPa Calm   1.2 mph /  1.9 km/h 80 % 0.00 in /  0 mm
21:29 30.5 °F /  -0.8 °C 25.4 °F /  -3.7 °C 30.37 in /  1028.3 hPa West 0.6 mph /  1 km/h 1.2 mph /  1.9 km/h 81 % 0.00 in /  0 mm
21:34 30.4 °F /  -0.9 °C 25.3 °F /  -3.7 °C 30.37 in /  1028.3 hPa Calm     81 % 0.00 in /  0 mm
21:39 30.2 °F /  -1 °C 25.1 °F /  -3.8 °C 30.36 in /  1028 hPa West 1.3 mph /  2.1 km/h 2.3 mph /  3.7 km/h 81 % 0.00 in /  0 mm
21:44 30.0 °F /  -1.1 °C 24.9 °F /  -3.9 °C 30.37 in /  1028.3 hPa West 0.1 mph /  0.2 km/h 2.3 mph /  3.7 km/h 81 % 0.00 in /  0 mm
21:49 29.9 °F /  -1.2 °C 25.1 °F /  -3.8 °C 30.37 in /  1028.3 hPa West 0.3 mph /  0.5 km/h 1.2 mph /  1.9 km/h 82 % 0.00 in /  0 mm
21:54 29.6 °F /  -1.3 °C 24.8 °F /  -4 °C 30.37 in /  1028.3 hPa West 0.9 mph /  1.4 km/h 3.5 mph /  5.6 km/h 82 % 0.00 in /  0 mm
21:59 29.5 °F /  -1.4 °C 25.0 °F /  -3.9 °C 30.37 in /  1028.3 hPa West 0.4 mph /  0.6 km/h 2.3 mph /  3.7 km/h 83 % 0.00 in /  0 mm
22:04 29.4 °F /  -1.4 °C 24.9 °F /  -3.9 °C 30.37 in /  1028.3 hPa Calm   2.3 mph /  3.7 km/h 83 % 0.00 in /  0 mm
22:10 29.4 °F /  -1.4 °C 24.9 °F /  -3.9 °C 30.37 in /  1028.3 hPa West 0.2 mph /  0.3 km/h 1.0 mph /  1.6 km/h 83 % 0.00 in /  0 mm
22:15 29.3 °F /  -1.5 °C 24.8 °F /  -4 °C 30.37 in /  1028.3 hPa West 0.2 mph /  0.3 km/h 1.2 mph /  1.9 km/h 83 % 0.00 in /  0 mm
22:20 29.3 °F /  -1.5 °C 25.1 °F /  -3.8 °C 30.38 in /  1028.7 hPa West 0.1 mph /  0.2 km/h 1.2 mph /  1.9 km/h 84 % 0.00 in /  0 mm
22:25 29.2 °F /  -1.6 °C 25.0 °F /  -3.9 °C 30.38 in /  1028.7 hPa West 1.7 mph /  2.7 km/h 3.5 mph /  5.6 km/h 84 % 0.00 in /  0 mm
22:30 29.2 °F /  -1.6 °C 25.0 °F /  -3.9 °C 30.38 in /  1028.7 hPa West 0.2 mph /  0.3 km/h 2.3 mph /  3.7 km/h 84 % 0.00 in /  0 mm
22:35 29.1 °F /  -1.6 °C 24.9 °F /  -3.9 °C 30.38 in /  1028.7 hPa West 0.1 mph /  0.2 km/h 1.2 mph /  1.9 km/h 84 % 0.00 in /  0 mm
22:40 29.1 °F /  -1.6 °C 25.2 °F /  -3.8 °C 30.37 in /  1028.3 hPa Calm     85 % 0.00 in /  0 mm
22:45 29.0 °F /  -1.7 °C 25.1 °F /  -3.8 °C 30.38 in /  1028.7 hPa Calm     85 % 0.00 in /  0 mm
22:46 29.0 °F /  -1.7 °C 25.1 °F /  -3.8 °C 30.38 in /  1028.7 hPa Calm     85 % 0.00 in /  0 mm
22:51 28.8 °F /  -1.8 °C 24.6 °F /  -4.1 °C 30.38 in /  1028.7 hPa West 1.3 mph /  2.1 km/h 2.3 mph /  3.7 km/h 84 % 0.00 in /  0 mm
22:56 28.6 °F /  -1.9 °C 24.7 °F /  -4.1 °C 30.39 in /  1029 hPa Calm     85 % 0.00 in /  0 mm
23:01 28.5 °F /  -1.9 °C 24.3 °F /  -4.3 °C 30.38 in /  1028.7 hPa Calm     84 % 0.00 in /  0 mm
23:06 28.3 °F /  -2.1 °C 24.1 °F /  -4.4 °C 30.38 in /  1028.7 hPa Calm     84 % 0.00 in /  0 mm
23:11 28.1 °F /  -2.2 °C 23.9 °F /  -4.5 °C 30.38 in /  1028.7 hPa Calm     84 % 0.00 in /  0 mm
23:16 28.0 °F /  -2.2 °C 23.8 °F /  -4.6 °C 30.39 in /  1029 hPa Calm   1.2 mph /  1.9 km/h 84 % 0.00 in /  0 mm
23:21 27.8 °F /  -2.3 °C 23.9 °F /  -4.5 °C 30.38 in /  1028.7 hPa Calm   2.3 mph /  3.7 km/h 85 % 0.00 in /  0 mm
23:26 27.7 °F /  -2.4 °C 24.1 °F /  -4.4 °C 30.39 in /  1029 hPa NNW 0.1 mph /  0.2 km/h 1.0 mph /  1.6 km/h 86 % 0.00 in /  0 mm
23:32 27.6 °F /  -2.4 °C 24.0 °F /  -4.4 °C 30.39 in /  1029 hPa NNW 0.1 mph /  0.2 km/h 1.2 mph /  1.9 km/h 86 % 0.00 in /  0 mm
23:37 27.6 °F /  -2.4 °C 24.0 °F /  -4.4 °C 30.39 in /  1029 hPa Calm     86 % 0.00 in /  0 mm
23:42 27.5 °F /  -2.5 °C 24.1 °F /  -4.4 °C 30.38 in /  1028.7 hPa Calm   1.2 mph /  1.9 km/h 87 % 0.00 in /  0 mm
23:47 27.5 °F /  -2.5 °C 24.1 °F /  -4.4 °C 30.38 in /  1028.7 hPa Calm     87 % 0.00 in /  0 mm
23:52 27.4 °F /  -2.6 °C 24.0 °F /  -4.4 °C 30.38 in /  1028.7 hPa Calm     87 % 0.00 in /  0 mm
23:57 27.3 °F /  -2.6 °C 23.9 °F /  -4.5 °C 30.39 in /  1029 hPa Calm     87 % 0.00 in /  0 mm
Crab Meadow Weather
Compliments of Weather Underground - 3 mb

Script developed by  Jim McMurry - jmcmurry@mwt.net Adapted for the template by  Wim van der Kuil - Leuven-Template.eu

Snow: Snowflakes generally fall from the sky at speeds between one and five miles per hour.